User: anonymous   Login
Location: NJAA Observatory
(40.6819°N, 74.8979°W)
Time: 14:56:59
(UTC-04:00)
Language:

Cosmos 1328 Rocket - Orbit

View from above orbital plane
View from above orbital plane
View from above satellite
View from above satellite

Ground track
Ground track

The orbit data is extracted from the following two-line orbital elements,

1 12988U 81117B   15241.20111382  .00000236  00000-0  25079-4 0  9995
2 12988 082.5273 330.4528 0017251 217.3508 205.5228 14.84465244822192
Epoch (UTC): 29 August 2015 04:49:36
Eccentricity: 0.0017251
inclination: 82.5273°
perigee height: 603 km
apogee height: 627 km
right ascension of ascending node: 330.4528°
argument of perigee: 217.3508°
revolutions per day: 14.84465244
mean anomaly at epoch: 205.5228°
orbit number at epoch: 82219

The dashed part of the orbit path shows where the satellite is in the earth's shadow,  

DLR